DW0333 Tranby-Lier NO current weather conditions

sailwx.info

Wind from 035

Air temperature 3.9° C
Dewpoint -0.5° C

Last reported at 2017-Jan-21 18:36 UTC.
Time now 2017-Jan-21 19:42 UTC

Location: N 59°50' E 010°17'.
View on Google Maps.

See reports from other nearby stations

  
Tides and Currents Weather Stations Pressure Air Temp Water Temp Dewpoint Dewpoint Depression Visibility Wind Speed Wind Dir Waves Ship Positions
date/time (UTC)wind fromknots sea level pressurealtimeterstation pressurevisibilityair tempwater tempwave heightnotes
2017-Jan-21 18:36 035 3.9
2017-Jan-21 18:21 035 4.4
2017-Jan-21 18:06 035 4.4
2017-Jan-21 17:51 035 4.4
2017-Jan-21 17:36 035 0 4.4
2017-Jan-21 17:21 035 0 4.4
2017-Jan-21 17:06 036 4.4
2017-Jan-21 16:51 036 4.4
2017-Jan-21 16:36 036 4.4
2017-Jan-21 16:21 036 5.0
2017-Jan-21 16:05 036 5.0
2017-Jan-21 15:51 036 5.0
2017-Jan-21 15:34 036 0 5.0
2017-Jan-21 15:18 035 1 5.6
2017-Jan-21 15:04 038 6.7
2017-Jan-21 14:48 038 0 6.7
2017-Jan-21 14:32 038 1 7.2
2017-Jan-21 14:17 040 7.8
2017-Jan-21 14:01 040 8.3
2017-Jan-21 13:47 040 0 8.3
2017-Jan-21 13:32 039 0 8.9
2017-Jan-21 13:16 294 8.9
2017-Jan-21 13:02 294 8.9
2017-Jan-21 12:46 293 1 8.9
2017-Jan-21 12:32 288 1 8.3
2017-Jan-21 12:16 294 2 8.3
2017-Jan-21 12:02 298 3 7.8
2017-Jan-21 11:46 281 2 7.8
2017-Jan-21 11:29 323 4 7.2
2017-Jan-21 11:16 323 3 6.1
2017-Jan-21 11:02 304 3 5.6
2017-Jan-21 10:46 335 3 5.6
2017-Jan-21 10:28 316 3 6.1
2017-Jan-21 10:13 304 2 5.6
2017-Jan-21 09:58 302 2 5.6
2017-Jan-21 09:42 302 2 5.6
2017-Jan-21 09:27 295 2 5.0
2017-Jan-21 09:12 304 0 5.0
2017-Jan-21 08:57 309 5.0
2017-Jan-21 08:41 306 0 5.0
2017-Jan-21 08:26 306 5.0
2017-Jan-21 08:11 312 0 5.0
2017-Jan-21 07:56 294 1 5.0
2017-Jan-21 07:41 326 2 5.0
2017-Jan-21 07:26 326 5 5.0
2017-Jan-21 07:11 287 6 5.0
2017-Jan-21 06:56 290 6 5.6
2017-Jan-21 06:41 286 6 5.6
2017-Jan-21 06:26 287 6 5.6
2017-Jan-21 06:11 284 6 5.6
2017-Jan-21 05:56 292 6 5.6
2017-Jan-21 05:38 303 6 5.6
2017-Jan-21 05:23 323 5 5.6
2017-Jan-21 05:08 322 5 5.6
2017-Jan-21 04:53 308 5 5.6
2017-Jan-21 04:22 307 6 5.6
2017-Jan-21 04:07 298 6 5.6
2017-Jan-21 03:52 292 5 5.6
2017-Jan-21 03:36 330 2 5.6
2017-Jan-21 03:21 292 2 5.6
2017-Jan-21 03:06 304 1 5.6
2017-Jan-21 02:51 278 2 6.1
2017-Jan-21 02:36 294 2 6.1
2017-Jan-21 02:21 290 3 6.1
2017-Jan-21 02:06 292 1 5.6
2017-Jan-21 01:51 094 1 6.1
2017-Jan-21 01:36 079 1 6.1
2017-Jan-21 01:19 009 0 6.1
2017-Jan-21 01:03 295 2 6.1
2017-Jan-21 00:48 142 6.7
2017-Jan-21 00:33 143 0 6.7
2017-Jan-21 00:18 271 0 6.7
2017-Jan-21 00:02 284 2 7.2
2017-Jan-20 23:47 326 3 6.7
2017-Jan-20 23:32 283 4 6.7
2017-Jan-20 23:17 295 5 7.2
2017-Jan-20 23:02 276 6 7.2
2017-Jan-20 22:46 256 7 7.2
2017-Jan-20 22:32 299 5 7.2
2017-Jan-20 22:16 302 5 7.2
2017-Jan-20 22:02 297 7 7.2
2017-Jan-20 21:46 318 6 7.2
2017-Jan-20 21:32 276 6 7.2
2017-Jan-20 21:16 288 6 7.2
2017-Jan-20 21:02 278 6 7.8
2017-Jan-20 20:46 295 5 7.2
2017-Jan-20 20:31 261 6 7.2
2017-Jan-20 20:14 252 3 6.7
2017-Jan-20 19:58 292 3 6.7
2017-Jan-20 19:43 238 4 6.7
2017-Jan-20 19:28 278 5 6.7
2017-Jan-20 19:13 257 5 7.2
2017-Jan-20 18:58 254 4 7.2
2017-Jan-20 18:43 281 5 7.2
2017-Jan-20 18:27 246 3 7.2
2017-Jan-20 18:12 246 3 7.2
2017-Jan-20 17:57 201 4 7.2
2017-Jan-20 17:42 258 5 6.7
2017-Jan-20 17:26 258 3 6.1
2017-Jan-20 17:11 234 1 6.1
2017-Jan-20 16:56 151 1 6.1
2017-Jan-20 16:41 166 2 6.1
2017-Jan-20 16:26 237 3 6.1
2017-Jan-20 16:11 244 1 6.1
2017-Jan-20 15:56 223 4 6.7
2017-Jan-20 15:41 242 3 7.2
2017-Jan-20 15:26 233 5 7.8
2017-Jan-20 15:09 242 7 7.8
2017-Jan-20 14:56 258 5 7.2
2017-Jan-20 14:38 228 2 7.2
2017-Jan-20 14:23 252 1 7.2
2017-Jan-20 14:08 261 3 7.2
2017-Jan-20 13:53 321 3 7.2
2017-Jan-20 13:38 270 0 7.8
2017-Jan-20 13:22 258 3 7.8
2017-Jan-20 13:07 242 3 7.8
2017-Jan-20 12:52 263 4 7.8
2017-Jan-20 12:37 265 3 7.8
2017-Jan-20 12:21 283 3 7.8
2017-Jan-20 12:06 244 2 7.8
2017-Jan-20 11:51 296 5 7.8
2017-Jan-20 11:36 327 3 7.8
2017-Jan-20 11:21 261 3 7.8
2017-Jan-20 11:06 298 6 7.8
2017-Jan-20 10:51 273 4 7.2
2017-Jan-20 10:36 239 3 7.2
2017-Jan-20 10:21 249 6 7.2
2017-Jan-20 10:03 249 4 6.7
2017-Jan-20 09:51 263 4 6.1
2017-Jan-20 09:34 255 0 6.1
2017-Jan-20 09:18 207 5 6.1
2017-Jan-20 09:03 256 3 6.1
2017-Jan-20 08:48 115 0 6.1
2017-Jan-20 08:32 100 1 6.7
2017-Jan-20 08:17 321 1 6.7
2017-Jan-20 08:01 258 2 7.2
2017-Jan-20 07:47 243 3 7.2
2017-Jan-20 07:32 288 4 7.2
2017-Jan-20 07:16 273 5 7.2
2017-Jan-20 07:02 290 5 7.2
2017-Jan-20 06:46 270 5 7.2
2017-Jan-20 06:32 279 4 7.2
2017-Jan-20 06:16 302 4 6.7
2017-Jan-20 06:02 242 2 5.6
2017-Jan-20 05:46 250 3 6.1
2017-Jan-20 05:32 251 6 6.1
2017-Jan-20 05:16 252 6 6.1
2017-Jan-20 05:01 244 4 5.6
2017-Jan-20 04:44 256 4 5.6
2017-Jan-20 04:29 263 6 5.0
2017-Jan-20 04:13 246 3 4.4
2017-Jan-20 03:58 280 3 4.4
2017-Jan-20 03:42 294 2 4.4
2017-Jan-20 03:27 120 1 4.4
2017-Jan-20 03:12 173 4 4.4
2017-Jan-20 02:57 261 3 4.4
2017-Jan-20 02:42 217 3 4.4
2017-Jan-20 02:27 150 1 5.0
2017-Jan-20 02:11 196 1 5.0
2017-Jan-20 01:56 183 1 5.6
2017-Jan-20 01:41 264 1 5.0
2017-Jan-20 01:26 200 2 5.0
2017-Jan-20 01:11 264 1 4.4
2017-Jan-20 00:56 145 0 4.4
2017-Jan-20 00:41 127 1 5.0
2017-Jan-20 00:26 185 2 5.0
2017-Jan-20 00:11 177 0 5.0
2017-Jan-19 23:56 125 1 5.0
2017-Jan-19 23:38 323 0 5.0
2017-Jan-19 23:23 094 0 5.0
2017-Jan-19 23:08 088 1 5.0
2017-Jan-19 22:53 078 0 5.0
2017-Jan-19 22:38 087 1 5.0
2017-Jan-19 22:22 050 1 5.6
2017-Jan-19 22:07 197 3 6.1
2017-Jan-19 21:52 077 2 6.1
2017-Jan-19 21:36 217 1 5.6
2017-Jan-19 21:21 156 0 6.1
2017-Jan-19 21:06 162 2 6.7
2017-Jan-19 20:51 302 3 7.2
2017-Jan-19 20:36 275 2 6.7
2017-Jan-19 20:21 281 3 6.7
2017-Jan-19 20:06 279 5 7.2
2017-Jan-19 19:51 256 6 6.7
2017-Jan-19 19:36 248 6 7.2
2017-Jan-19 19:21 201 5 7.2
2017-Jan-19 19:04 313 6 7.2